Location: Gamarra
(10.0780°N, 67.4929°W)
Time: 09:18:54
(UTC+00:00)

CZ-4B R/B - Pass Details

Date: 13 April 2024
Orbit: 465 x 616 km, 97.9° (Epoch: 22 May)

Event Time Altitude Azimuth Distance (km) Brightness Sun altitude
Exits shadow 23:20:31 13° 123° (ESE) 1,682 4.7 -10.5°
Maximum altitude 23:23:04 22° 78° (ENE) 1,231 4.1 -11.1°
Drops below altitude 10° 23:26:01 10° 27° (NNE) 1,772 5.3 -11.8°
Sets 23:28:25 0° 11° (N) 2,630 6.3 -12.4°
